Flag for Canada Weather past 2 weeks in Yarmouth County, Nova Scotia, Canada

Now
36 °F

Passing clouds.


Feels Like: 36 °F
Forecast: 32 / 48 °F
Wind: 2 mph from Southwest

Location: Yarmouth

Current Time: Apr 26, 2015 at 4:23:59 AM

Latest Report: Apr 26, 2015 at 3:00 AM


Visibility: 15 mi

Pressure: 29.63 "Hg

Humidity: 93%

Dew point: 34 °F

Location of Yarmouth CountyLocation

Historic Weather in Yarmouth County — Graph

°F

Yarmouth County temperature yesterday

Maximum temperature yesterday: 41 °F (at 12:00 PM)
Minimum temperature yesterday: 34 °F (at 6:00 AM)
Average temperature yesterday: 38 °F

Past Weeks' High & Low Weather Summary

 TemperatureHumidityPressure
High59 °F (Apr 15, 1:00 PM)100% (Apr 11, 3:00 AM)30.41 "Hg (Apr 11, 3:00 AM)
Low28 °F (Apr 20, 7:00 AM)29% (Apr 15, 2:00 PM)29.52 "Hg (Apr 24, 5:00 AM)
Average42 °F84%29.96 "Hg
* Reported Apr 11 3:00 AM — Apr 26 3:00 AM, Yarmouth County, Weather by CustomWeather, © 2015

Note: Actual official high and low records may vary slightly from our data, if they occured in-between our weather recording intervals... More about our weather records

Advertising

Yarmouth County weather history for previous 24 hours

 ConditionsComfort  
Time TempWeatherWind HumidityBarometerVisibility
3:00 AM
Sun, Apr 26
36 °FPassing clouds.2 mph93%29.63 "Hg15 mi
2:00 AM32 °FPassing clouds.3 mph100%29.64 "Hg15 mi
1:00 AM34 °FPassing clouds.3 mph100%29.65 "Hg15 mi
12:00 AM34 °FPassing clouds.6 mph100%29.66 "Hg15 mi
11:00 PM
Sat, Apr 25
34 °FClear.3 mph93%29.67 "Hg15 mi
10:00 PM34 °FClear.2 mph93%29.67 "Hg15 mi
9:00 PM36 °FPassing clouds.3 mph87%29.67 "Hg15 mi
8:00 PM37 °FPassing clouds.8 mph81%29.66 "Hg15 mi
7:00 PM39 °FScattered clouds.13 mph75%29.66 "Hg15 mi
6:00 PM39 °FScattered clouds.12 mph81%29.66 "Hg15 mi
5:00 PM39 °FBroken clouds.10 mph75%29.65 "Hg15 mi
4:00 PM41 °FBroken clouds.10 mph70%29.65 "Hg15 mi
3:00 PM39 °FPartly sunny.13 mph75%29.66 "Hg15 mi
2:51 PM39 °FPartly sunny.13 mph75%29.66 "Hg15 mi
2:00 PM41 °FPartly sunny.13 mph70%29.67 "Hg15 mi
1:00 PM41 °FBroken clouds.14 mph70%29.66 "Hg15 mi
12:00 PM41 °FPartly sunny.13 mph76%29.65 "Hg15 mi
11:00 AM39 °FPartly sunny.10 mph75%29.65 "Hg15 mi
10:00 AM39 °FOvercast.10 mph70%29.66 "Hg15 mi
9:00 AM37 °FOvercast.9 mph81%29.67 "Hg15 mi
8:00 AM37 °FOvercast.9 mph81%29.66 "Hg15 mi
7:00 AM36 °FOvercast.7 mph87%29.65 "Hg15 mi
6:00 AM34 °FPassing clouds.6 mph87%29.63 "Hg15 mi
5:00 AM36 °FPassing clouds.9 mph81%29.62 "Hg15 mi
4:00 AM37 °FOvercast.8 mph81%29.63 "Hg15 mi
Weather by CustomWeather, © 2015

See weather overviewHow to use our weather pages